Regional Weather Roundup
Issued by NWS

Home | Current Version | Previous Version | Graphics & Text | Print | Product List | Glossary On
Versions: 1 2 3 4 5 6 7 8 9 10 11 12 13 14 15 16 17 18 19 20 21 22 23 24 25 26 27 28
000
ASUS45 KSLC 272110
RWRUT

UTAH REGIONAL WEATHER ROUNDUP
NATIONAL WEATHER SERVICE SALT LAKE CITY UT
300 PM MDT WED APR 27 2016

UTZ001>011-023>025-272200-

NORTHERN UTAH

CITY           SKY/WX    TMP DP  RH WIND       PRES   REMARKS
BRIGHAM CITY   PTSUNNY   59  32  36 CALM      29.79F
HILL AFB       PTSUNNY   55  36  47 VRB5      29.78F
LOGAN          PTSUNNY   56  37  49 N8        29.79F
OGDEN          PTSUNNY   59  35  40 N9        29.77F
PROVO AIRPORT  PTSUNNY   55  39  54 E12G17    29.80F
SALT LAKE CITY CLOUDY    58  32  37 S6        29.79S
VERNAL         CLOUDY    56  35  45 NE10G20   29.81F
WENDOVER       CLOUDY    46  36  66 CALM      29.83F
HEBER CITY     CLOUDY    54  30  40 SW9       29.78F

$$

UTZ012>022-026-027-272200-

SOUTHERN/CENTRAL UTAH

CITY           SKY/WX    TMP DP  RH WIND       PRES   REMARKS
BLANDING       CLOUDY    56  29  35 SW10      29.90F
BRYCE CANYON   LGT RAIN  38  34  85 SW7       29.87S FOG     WCI  33
CEDAR CITY     CLOUDY    49  37  63 SW9       29.82F
DELTA          CLOUDY    46  43  87 SW14      29.80S
HANKSVILLE     PTSUNNY   61  32  33 S7        29.79F
MILFORD        LGT RAIN  52  38  58 SW14      29.81F
MOAB/CYNLANDS  CLOUDY    61  37  41 S5        29.78F
PRICE          CLOUDY    51  30  44 E8        29.81F
ST GEORGE      CLOUDY    66  32  28 NE3       29.75F
KANAB          CLOUDY    61  32  33 S12       29.80F

$$

REGIONAL REPORTS     COLORADO/ARIZONA

CITY           SKY/WX    TMP DP  RH WIND       PRES   REMARKS
CRAIG, CO      CLOUDY    49  33  54 N13       29.83S
GRAND JUNCTION CLOUDY    57  37  47 CALM      29.81F
RIFLE          LGT RAIN  50  35  56 VRB7      29.83S
MONTROSE       CLOUDY    55  31  39 CALM      29.85F
CORTEZ         CLOUDY    59  24  26 VRB7G20   29.83F
PAGE, AZ       CLOUDY    64  34  32 N8        29.76F
GRAND CANYON   CLOUDY    56  24  29 SW9G17    29.85F
KINGMAN        CLOUDY    69  25  19 SW24G33   29.76F
FLAGSTAFF      MOSUNNY   52  23  32 S18G29    29.87F

$$

REGIONAL REPORTS    NEVADA/IDAHO/WYOMING

CITY           SKY/WX    TMP DP  RH WIND       PRES   REMARKS
LAS VEGAS, NV  CLOUDY    73  26  17 VRB6      29.66F
ELY            LGT RAIN  41  34  76 VRB3      29.82F
ELKO           CLOUDY    48  33  56 SW7       29.82F
POCATELLO, ID  CLOUDY    51  39  63 S9        29.84F
BURLEY         CLOUDY    55  40  56 E13       29.80F
EVANSTON, WY   LGT RAIN  41  30  65 S9        29.85R
ROCK SPRINGS   SUNNY     39  30  70 S6        29.86F WCI  35
KEMMERER         N/A     46  32  57 W14G21    29.84F

$$




USA.gov is the U.S. government's official web portal to all federal, state and local government web resources and services.